www.pogodaiklimat.ru

Погода и климат >> Архив погоды >> Филиппины >> Dipolog


ПОГОДА в Dipolog

  • Прогноз погоды в Dipolog
  • Монитор погоды в Dipolog
  • Климат города

АРХИВ ПОГОДЫ в Dipolog

Время (UTC), дата Ветер
(напр.,м/с)
 
Видим.   Явления Облачность Т
(С)
Тd
(С)
f
(%)
Тe
(С)
Тes
(С)
Комфортность P
(гПа)
Po
(гПа)
Тmin
(С)
Tmax
(С)
R
(мм)
R24
(мм)
S
(см)
03 14.05 С 3 20 км мгла {туман} 3/3 540 м
[Cu med, cong]
+32.0 +25.8 70 +47 +59 опасность
перегрева
1010.8 1011.0
06 14.05 С 4 20 км гроза без осадков {туман} 6/3 500 м
[Cb cap Cs]
+32.7 +25.8 67 +48 +55 опасность
перегрева
1008.2 1008.0
09 14.05 СЗ 2 20 км мгла {гроза, туман} 8/3 540 м
[Cu med, cong Ac As]
+31.4 +25.7 72 +46 +47 опасность
перегрева
1008.8 1009.0
12 14.05 штиль 0 20 км {гроза, туман} 6/3 540 м
[Cu med, cong Ac As]
+28.6 +25.6 84 +42 +42 опасность
перегрева
1009.7 1010.0 +33.7
15 14.05 Ю 1 20 км 5/3 540 м
[Cu med, cong Ac As]
+27.1 +25.4 90 +39 +39 очень
душно
1010.1 1010.0
18 14.05 штиль 0 20 км 5/3 540 м
[Cu med, cong Ac As]
+26.1 +24.6 91 +37 +37 очень
душно
1008.8 1009.0
21 14.05 штиль 0 20 км 8/3 540 м
[Cu med, cong Cs]
+25.6 +24.3 93 +36 +36 очень
душно
1008.8 1009.0
00 15.05 штиль 0 18 км мгла {туман} 9/3 540 м
[Cu med, cong Ac As Cs]
+28.3 +25.0 82 +41 +44 опасность
перегрева
1009.7 1010.0 +25.0
03 15.05 С 3 20 км мгла {туман} 8/3 540 м
[Cu med, cong Ac As]
+31.7 +25.9 71 +47 +53 опасность
перегрева
1009.8 1010.0
06 15.05 С 3 20 км мгла {туман} 6/3 540 м
[Cu med, cong Cs]
+33.0 +26.0 67 +49 +57 опасность
перегрева
1007.6 1008.0
09 15.05 ЮЗ 2 15 км гроза без осадков {туман} 10/3 500 м
[Cb cap Ac As]
+31.0 +25.8 74 +46 +46 опасность
перегрева
1007.8 1008.0
12 15.05 СВ 1 15 км {гроза, ливн. осадки} 10/3 540 м
[Cu med, cong Ac As]
+28.8 +25.1 80 +42 +42 опасность
перегрева
1010.1 1010.0 +33.6 0.2
15 15.05 СВ 2 18 км 9/3 500 м
[Cu med, cong Ac As]
+27.0 +25.0 89 +39 +39 очень
душно
1010.0 1010.0
18 15.05 СВ 2 18 км 8/3 500 м
[Cu med, cong Ac As]
+26.1 +24.4 90 +36 +36 очень
душно
1008.4 1008.0
21 15.05 штиль 0 18 км 8/3 540 м
[Cu med, cong Ac As]
+25.6 +24.0 91 +35 +35 очень
душно
1007.6 1008.0
00 16.05 штиль 0 18 км гроза без осадков {туман} 9/3 500 м
[Cb cap Ac As]
+28.3 +25.0 82 +41 +43 опасность
перегрева
1009.8 1010.0 +25.0 0.2
03 16.05 СВ 3 18 км мгла {туман} 9/3 540 м
[Cu med, cong Cs]
+30.1 +25.3 76 +44 +54 опасность
перегрева
1009.4 1009.0
06 16.05 СВ 4 18 км мгла {туман} 9/3 500 м
[Cb cap Cs]
+31.7 +25.6 70 +46 +52 опасность
перегрева
1007.6 1008.0
09 16.05 ЮВ 2 18 км мгла {гроза, туман} 9/3 500 м
[Cb cap Cs]
+30.1 +25.3 76 +44 +45 опасность
перегрева
1007.5 1008.0
12 16.05 штиль 0 18 км зарница {гроза, туман} 9/3 500 м
[Cb cap Cs]
+28.0 +25.1 84 +40 +40 очень
душно
1009.5 1010.0 +32.3
15 16.05 штиль 0 18 км зарница 9/3 500 м
[Cb cap Cs]
+27.0 +25.2 90 +39 +39 очень
душно
1010.0 1010.0
18 16.05 штиль 0 20 км 9/3 540 м
[Cu med, cong Ac As]
+26.1 +24.6 91 +37 +37 очень
душно
1008.7 1009.0
21 16.05 СВ 1 8000 м гроза, ливневой дождь 10/4 500 м
[Sc As op]
+24.4 +23.7 96 +33 +33 очень
душно
1008.5 1009.0
00 17.05 ЮВ 2 15 км в посл. час гроза {ливн. осадки} 10/3 540 м
[Cu med, cong Ac As]
+26.6 +25.6 94 +39 +40 очень
душно
1009.0 1009.0 +24.4 20
03 17.05 СВ 2 18 км мгла {туман} 9/3 540 м
[Cu med, cong Ac As]
+30.0 +25.8 78 +45 +50 опасность
перегрева
1009.0 1009.0
06 17.05 СВ 2 20 км мгла {туман} 8/3 540 м
[Cu med, cong Ac As]
+32.2 +26.0 70 +48 +53 опасность
перегрева
1007.0 1007.0
09 17.05 В 2 20 км мгла {туман} 8/3 540 м
[Cu med, cong Ac As]
+30.7 +25.9 76 +46 +46 опасность
перегрева
1006.8 1007.0
12 17.05 штиль 0 18 км {туман} 9/3 540 м
[Cu med, cong Ac As]
+28.4 +24.6 80 +40 +40 очень
душно
1007.6 1008.0 +32.8
15 17.05 Ю 1 20 км зарница 5/3 500 м
[Cb cap Ac As]
+27.2 +24.7 86 +39 +39 очень
душно
1008.8 1009.0
18 17.05 ЮВ 1 18 км зарница 9/3 500 м
[Cb cap Ac As]
+25.9 +24.4 91 +36 +36 очень
душно
1007.4 1007.0
21 17.05 ЮВ 1 18 км зарница 9/3 500 м
[Cb cap Ac As]
+25.4 +24.1 93 +35 +35 очень
душно
1007.4 1007.0
00 18.05 Ю 2 20 км мгла {туман} 8/3 540 м
[Cu med, cong Cs]
+27.6 +24.7 84 +39 +43 очень
душно
1008.2 1008.0 +25.0
03 18.05 СВ 2 20 км мгла {туман} 8/3 540 м
[Cu med, cong Ac As]
+31.0 +25.5 73 +46 +53 опасность
перегрева
1008.3 1008.0
06 18.05 СВ 2 20 км мгла {туман} 8/3 540 м
[Cu med, cong Ac As]
+32.4 +25.1 65 +46 +51 опасность
перегрева
1005.3 1005.0
09 18.05 СЗ 2 18 км мгла {туман} 10/3 540 м
[Cu med, cong Ac As]
+30.4 +25.2 74 +44 +44 опасность
перегрева
1005.9 1006.0
12 18.05 штиль 0 18 км {туман} 9/3 540 м
[Cu med, cong Ac As]
+28.6 +25.7 84 +42 +42 опасность
перегрева
1007.8 1008.0 +32.0
15 18.05 ЮВ 1 20 км зарница 5/3 500 м
[Cb cap Cs]
+26.9 +24.9 89 +39 +39 очень
душно
1008.2 1008.0
18 18.05 В 1 20 км зарница 5/3 500 м
[Cb cap Cs]
+26.1 +24.6 91 +37 +37 очень
душно
1007.3 1007.0
21 18.05 ЮВ 1 18 км 8/3 540 м
[Cu med, cong Cs]
+25.1 +23.6 91 +34 +34 очень
душно
1006.6 1007.0
00 19.05 Ю 1 18 км мгла {туман} 9/3 540 м
[Cu med, cong Cs]
+28.0 +24.3 80 +39 +44 очень
душно
1008.1 1008.0 +24.6
03 19.05 В 2 20 км мгла {туман} 8/3 540 м
[Cu med, cong Cs]
+31.8 +25.6 70 +47 +59 опасность
перегрева
1008.0 1008.0
06 19.05 С 3 20 км мгла {туман} 6/3 500 м
[Cb cap Cs]
+34.1 +25.9 62 +49 +57 опасность
перегрева
1005.8 1006.0
09 19.05 В 2 20 км мгла {туман} 5/3 540 м
[Cu med, cong Ac As]
+33.6 +25.4 62 +48 +49 опасность
перегрева
1005.3 1005.0
12 19.05 штиль 0 20 км {туман} 6/3 540 м
[Cu med, cong Ac As]
+29.4 +24.0 73 +41 +41 опасность
перегрева
1007.0 1007.0 +34.3
15 19.05 штиль 0 20 км 5/3 540 м
[Cu med, cong Ac As]
+27.7 +24.6 83 +39 +39 очень
душно
1007.7 1008.0
18 19.05 Ю 1 20 км 5/3 540 м
[Cu med, cong Ac As]
+26.2 +24.2 89 +36 +36 очень
душно
1006.4 1006.0
21 19.05 Ю 1 20 км зарница 6/3 500 м
[Cb cap Ac As]
+25.3 +24.1 93 +35 +35 очень
душно
1006.4 1006.0
00 20.05 ЮВ 1 20 км мгла {туман} 3/3 540 м
[Cu med, cong Ci fib]
+27.8 +24.1 80 +39 +44 очень
душно
1009.1 1009.0 +25.3
03 20.05 С 2 20 км мгла {туман} 5/3 540 м
[Cu med, cong Ci fib]
+32.0 +25.8 70 +47 +61 опасность
перегрева
1009.3 1009.0
06 20.05 СВ 4 20 км гроза без осадков {туман} 3/3 500 м
[Cb cap Ci fib]
+32.8 +26.4 69 +49 +56 опасность
перегрева
1007.0 1007.0
09 20.05 СВ 2 20 км мгла {гроза, туман} 6/3 540 м
[Cu med, cong Ac As]
+30.6 +24.7 71 +43 +44 опасность
перегрева
1006.8 1007.0
12 20.05 ЮВ 1 20 км зарница {туман} 8/3 500 м
[Cb cap Cs]
+28.3 +23.9 77 +39 +39 очень
душно
1009.4 1009.0 +34.0
15 20.05 Ю 1 18 км 9/3 540 м
[Cu med, cong Ac As]
+26.7 +23.9 85 +37 +37 очень
душно
1008.8 1009.0
18 20.05 штиль 0 18 км 10/3 540 м
[Cu med, cong Ac As]
+26.0 +22.4 81 +34 +34 очень
душно
1007.5 1008.0
21 20.05 Ю 1 18 км 9/3 540 м
[Cu med, cong Ac As]
+25.1 +22.5 86 +33 +33 очень
душно
1008.7 1009.0
00 21.05 Ю 2 20 км мгла {туман} 8/3 540 м
[Cu med, cong Ac As]
+28.4 +25.2 83 +41 +44 опасность
перегрева
1010.4 1010.0 +24.6

 

Местоположение метеостанции Dipolog (Филиппины): широта 8.60 долгота 123.35 высота над уровнем моря 5 м.

В архиве по умолчанию представлена погода в Dipolog за последнюю неделю. Архивные данные за месяц целиком и за предыдущие месяцы, начиная с января 2011 года, Вы можете получить, выбрав интересующий диапазон дат из раскрывающегося списка и нажав кнопку "Ввод!".


*Определитесь, кто Вы:
робот инопланетянин человек

Внимание! Время в таблицах - всемирное. Для получения местного времени необходимо прибавить поправку, которая в Dipolog равна 8 ч.

Смотрите также архив погоды в соседних городах и на ближайших метеорологических станциях:

Погода в Dumaguete (Филиппины) (78 км)
Погода в Lumbia Airport (Филиппины) (104 км)
Погода в Tagbilaran (Филиппины) (124 км)
Погода в Cotobato (Филиппины) (186 км)
Погода в Malaybalay (Филиппины) (197 км)
Погода в Mactan (Филиппины) (201 км)
Погода в Maasin (Филиппины) (235 км)
Погода в Zamboanga (Филиппины) (237 км)
Погода в Butuan (Филиппины) (240 км)
Погода в Surigao (Филиппины) (271 км)

Пояснения к столбцам:

Ветер - указаны скорость ветра в м/с - средняя за 10 мин, порывы в срок и между сроками (в фигурных скобках) и направление, откуда дует ветер: С - северный, СВ - северо-восточный, В - восточный, ЮВ - юго-восточный, Ю - южный, ЮЗ - юго-западный, З - западный, СЗ - северо-западный.
Видимость - горизонтальная дальность видимости в метрах или километрах. При видимости от 1 до 10 км при отсутствии осадков обычно наблюдается дымка, при ухудшении видимости до 1 км и менее - туман. В сухую погоду видимость может ухудшаться дымом, пылью или мглою.
Явления - указаны атмосферные явления, наблюдавшиеся в срок или в последний час перед сроком; фигурными скобками обозначены явления, наблюдавшиеся между сроками (за 1-3 часа до срока); квадратными скобками обозначены град или гололедные отложения с указанием их диаметра в мм.
Облачность - указаны через наклонную черту общая и нижняя облачность в баллах и высота нижней границы облаков в метрах; квадратными скобками обозначены формы облаков: Ci - перистые, Cs - перисто-слоистые, Cc - перисто-кучевые, Ac - высококучевые, As - высокослоистые, Sc - слоисто-кучевые, Ns - слоисто-дождевые, Cu - кучевые, Cb - кучево-дождевые. Подробнее классификацию облаков см. в Атласе облаков (PDF).
T - Температура воздуха - температура, измеренная на высоте 2 м над землей.
Td - Температура точки росы - температура, при понижении до которой содержащийся в воздухе водяной пар достигнет насыщения.
f - Относительная влажность воздуха - влажноcть воздуха, измеренная на высоте 2 м над землей.
Te - Эффективная температура - температура, которую ощущает одетый по сезону человек в тени. Характеристика душности погоды. При расчете учитывается влияние влажности воздуха и скорости ветра на теплоощущения человека.
Tes - Эффективная температура на солнце - температура, которую ощущает человек, с поправкой на солнечный нагрев. Характеристика знойности погоды. Зависит от высоты солнца над горизонтом, облачности и скорости ветра. Ночью, в пасмурную погоду, а также при ветре 12 м/с и более поправка равна нулю.
P - Атмосферное давление - приведенное к уровню моря атмосферное давление.
Po - Атмосферное давление - измеренное на уровне метеостанции атмосферное давление.
Tmin - Минимальная температура - минимум температуры воздуха на высоте 2 м над землей.
Tmax - Максимальная температура - максимум температуры воздуха на высоте 2 м над землей.
R - Количество осадков - Количество выпавших осадков за период времени, мм. При наведении курсора мыши на число - период времени, за который выпало указанное количество осадков.
R24 - Количество осадков - Количество выпавших осадков за 24 часа, мм.
S - Снежный покров - Высота снежного покрова, см. При наведении курсора мыши на число - состояние снежного покрова и степень покрытия местности в баллах.